{"data":{"norad_id":55974,"intl_designator":"2023-039B","name":"TIANMU-1 04","alt_names":[],"object_type":"PAYLOAD","status":"ACTIVE","operator":null,"country":"PRC","launch_date":"2023-03-22","launch_site_code":"JSC","launch_vehicle":null,"mission":null,"orbit_class":"UNKNOWN","rcs_meters":null,"size_class":null,"mass_kg":null,"dimensions":null,"purposes":["earth_obs"],"wikipedia_slug":null,"has_3d_model":false,"image_url":null,"decayed_at":null,"tle_current":{"epoch":"2026-09-20T04:26:09.462336Z","epoch_age_seconds":41657,"freshness":"FRESH","line1":"1 55974U 23039B   26263.18483174  .00012229  00000+0  21650-3 0  9994","line2":"2 55974  97.5199  80.2553 0004894  97.4542 262.7265 15.50433931195550","mean_motion":15.50433931,"eccentricity":0.0004894,"inclination_deg":97.5199,"raan_deg":80.2553,"arg_perigee_deg":97.4542,"mean_anomaly_deg":262.7265,"bstar":0.0002165,"rev_number":19555,"period_min":92.877224318177,"perigee_km":412.13340673065,"apogee_km":418.78297770479,"semimajor_km":6793.5951922177,"source":"CELESTRAK","updated_at":"2026-09-20T09:00:33.222421Z"}}}